Location: Cisewo
(53.3833°N, 14.9000°E)
Time: 13:22:52
(UTC+00:00)

Cosmos 1437 Rocket - Pass Details

Date: 18 April 2021
Orbit: 503 x 564 km, 81.2° (Epoch: 16 May)

Event Time Altitude Azimuth Distance (km) Brightness Sun altitude
Exits shadow 22:08:23 38° 45° (NE) 784 3.8 -24.5°
Drops below altitude 10° 22:11:01 10° 21° (NNE) 1,738 6.1 -24.6°
Sets 22:13:11 0° 17° (NNE) 2,635 7.2 -24.7°
